Hourly Data Report for September 23, 2017

All times are specified in Local Standard Time (LST). Add 1 hour to adjust for Daylight Saving Time where and when it is observed.

RESOLUTE BAY A
NUNAVUT

74°43'01.000" N
94°58'10.000" W
67.70 m
2403498
71924
YRB

Download Data

Hourly Data (September 2017)
Hourly Data Report for September 23, 2017
Temp Definition
°C
Dew Point Temp Definition
°C
Rel Hum Definition
%
Wind Dir Definition
10's deg

Wind Spd Definition
km/h
Visibility Definition
km
Stn Press Definition
kPa
Hmdx Definition


Wind Chill Definition


Weather Definition


TIME
00:00 Legend Double Dagger -4.3 -5.3 93 33 34 24.1 101.26   -13 Cloudy
01:00 Legend Double Dagger -4.5 -5.4 93 33 31 24.1 101.25   -12 LegendNANA
02:00 Legend Double Dagger -5.0 -6.2 91 34 39 24.1 101.26   -14 Snow
03:00 Legend Double Dagger -5.9 -7.0 92 34 23 24.1 101.28   -13 Snow
04:00 Legend Double Dagger -6.5 -7.4 93 35 29 24.1 101.28   -15 Snow
05:00 Legend Double Dagger -5.8 -7.0 92 32 30 24.1 101.28   -14 LegendNANA
06:00 Legend Double Dagger -5.1 -6.3 91 33 26 24.1 101.27   -13 Cloudy
07:00 Legend Double Dagger -3.8 -5.1 91 32 31 24.1 101.26   -12 LegendNANA
08:00 Legend Double Dagger -3.6 -5.2 89 34 32 24.1 101.26   -11 LegendNANA
09:00 Legend Double Dagger -3.6 -5.1 89 34 28 24.1 101.27   -11 Cloudy
10:00 Legend Double Dagger -3.7 -5.1 90 32 26 24.1 101.28   -11 LegendNANA
11:00 Legend Double Dagger -3.5 -5.0 90 33 27 24.1 101.28   -11 LegendNANA
12:00 Legend Double Dagger -3.3 -4.6 91 32 26 24.1 101.26   -10 Cloudy
13:00 Legend Double Dagger -3.2 -4.3 92 33 24 24.1 101.28   -10 LegendNANA
14:00 Legend Double Dagger -3.0 -4.2 92 32 29 24.1 101.28   -10 LegendNANA
15:00 Legend Double Dagger -3.0 -4.2 91 32 26 24.1 101.29   -10 Cloudy
16:00 Legend Double Dagger -3.0 -4.1 92 33 23 24.1 101.29   -9 LegendNANA
17:00 Legend Double Dagger -3.0 -4.0 93 32 27 24.1 101.29   -10 LegendNANA
18:00 Legend Double Dagger -3.0 -4.1 93 34 30 24.1 101.29   -10 Cloudy
19:00 Legend Double Dagger -3.1 -4.0 94 35 31 24.1 101.29   -11 LegendNANA
20:00 Legend Double Dagger -3.3 -4.2 93 33 28 24.1 101.30   -11 LegendNANA
21:00 Legend Double Dagger -3.1 -4.1 93 34 25 24.1 101.28   -10 Cloudy
22:00 Legend Double Dagger -3.2 -4.0 94 34 27 24.1 101.28   -10 LegendNANA
23:00 Legend Double Dagger -3.2 -4.2 93 34 21 24.1 101.31   -9 LegendNANA

Notes on Data Quality.

Legend

  • E = Estimated
  • M = Missing
  • NA = Not Available
  • ‡ = Partner data that is not subject to review by the National Climate Archives
Date modified: